| time (UTC) | temp F | wind direction | speed MPH | gust MPH | rain 1hr in | rain 24hr in | rain mn in | humidity % | barometer mb |
| 20260505201004 | 71 | 34 | 1.0 | 5.0 | 0.00 | 0.08 | 0.08 | 74 | 1009.0 |
| 20260505200449 | 72 | 195 | 0.0 | 5.0 | 0.00 | 0.08 | 0.08 | 73 | 1009.1 |
| 20260505195925 | 71 | 195 | 0.0 | 1.0 | 0.00 | 0.08 | 0.08 | 77 | 1009.1 |
| 20260505195405 | 71 | 152 | 0.0 | 3.0 | 0.00 | 0.08 | 0.08 | 75 | 1009.1 |
| 20260505194901 | 71 | 150 | 0.0 | 3.0 | 0.00 | 0.08 | 0.08 | 76 | 1009.2 |
| 20260505194348 | 71 | 198 | 0.0 | 3.0 | 0.00 | 0.08 | 0.08 | 75 | 1009.3 |
| 20260505193851 | 72 | 155 | 0.0 | 3.0 | 0.00 | 0.08 | 0.08 | 76 | 1009.2 |
| 20260505193348 | 72 | 155 | 0.0 | 3.0 | 0.00 | 0.08 | 0.08 | 76 | 1009.2 |
| 20260505192848 | 71 | 162 | 0.0 | 3.0 | 0.00 | 0.08 | 0.08 | 78 | 1009.1 |
| 20260505192334 | 71 | 151 | 0.0 | 3.0 | 0.00 | 0.08 | 0.08 | 79 | 1009.3 |
| 20260505191837 | 70 | 122 | 0.0 | 3.0 | 0.00 | 0.08 | 0.08 | 80 | 1009.5 |
| 20260505191324 | 69 | 264 | 0.0 | 3.0 | 0.00 | 0.08 | 0.08 | 81 | 1009.6 |
| 20260505190824 | 69 | 208 | 0.0 | 1.0 | 0.00 | 0.08 | 0.08 | 82 | 1009.7 |
| 20260505190310 | 68 | 158 | 0.0 | 1.0 | 0.00 | 0.08 | 0.08 | 81 | 1010.0 |
| 20260505185254 | 68 | 161 | 0.0 | 1.0 | 0.00 | 0.08 | 0.08 | 82 | 1010.3 |
| 20260505184741 | 68 | 170 | 0.0 | 3.0 | 0.00 | 0.08 | 0.08 | 81 | 1010.3 |
| 20260505184222 | 69 | 134 | 0.0 | 3.0 | 0.00 | 0.08 | 0.08 | 79 | 1010.4 |
| 20260505183727 | 69 | 153 | 0.0 | 1.0 | 0.00 | 0.08 | 0.08 | 81 | 1010.3 |
| 20260505183227 | 68 | 155 | 0.0 | 1.0 | 0.00 | 0.08 | 0.08 | 83 | 1010.5 |
| 20260505182729 | 67 | 200 | 0.0 | 1.0 | 0.00 | 0.08 | 0.08 | 85 | 1010.6 |
| 20260505182236 | 66 | 152 | 0.0 | 1.0 | 0.00 | 0.08 | 0.08 | 86 | 1010.5 |
| 20260505181725 | 65 | 199 | 0.0 | 0.0 | 0.00 | 0.08 | 0.08 | 87 | 1010.9 |
| 20260505181223 | 65 | 195 | 0.0 | 0.0 | 0.00 | 0.08 | 0.08 | 86 | 1010.9 |
| 20260505180720 | 65 | 179 | 0.0 | 0.0 | 0.00 | 0.08 | 0.08 | 86 | 1011.1 |
| 20260505180221 | 65 | 176 | 0.0 | 0.0 | 0.00 | 0.08 | 0.08 | 86 | 1011.1 |
| 20260505175707 | 65 | 202 | 0.0 | 0.0 | 0.00 | 0.08 | 0.08 | 85 | 1011.2 |
| 20260505175211 | 66 | 146 | 0.0 | 0.0 | 0.00 | 0.08 | 0.08 | 85 | 1011.1 |
| 20260505174709 | 66 | 145 | 0.0 | 0.0 | 0.00 | 0.08 | 0.08 | 85 | 1011.2 |
| 20260505174204 | 66 | 144 | 0.0 | 0.0 | 0.00 | 0.08 | 0.08 | 84 | 1011.2 |
| 20260505173658 | 66 | 187 | 0.0 | 0.0 | 0.00 | 0.08 | 0.08 | 84 | 1011.1 |
| 20260505173143 | 67 | 188 | 3.0 | 1.0 | 0.00 | 0.08 | 0.08 | 83 | 1011.1 |
| 20260505172646 | 66 | 122 | 2.0 | 71.0 | 0.00 | 0.08 | 0.08 | 84 | 1011.3 |
| 20260505172154 | 66 | 138 | 0.0 | 1.0 | 0.00 | 0.08 | 0.08 | 85 | 1011.3 |
| 20260505171642 | 66 | 200 | 0.0 | 7.0 | 0.00 | 0.08 | 0.08 | 87 | 1011.2 |
| 20260505171125 | 66 | 144 | 0.0 | 0.0 | 0.00 | 0.08 | 0.08 | 88 | 1011.3 |
| 20260505170609 | 65 | 205 | 0.0 | 0.0 | 0.00 | 0.08 | 0.08 | 88 | 1011.1 |
| 20260505165552 | 64 | 186 | 0.0 | 0.0 | 0.00 | 0.08 | 0.08 | 91 | 1011.1 |
| 20260505165047 | 63 | 186 | 0.0 | 0.0 | 0.00 | 0.08 | 0.08 | 91 | 1011.2 |
| 20260505164536 | 62 | 201 | 0.0 | 1.0 | 0.00 | 0.08 | 0.08 | 92 | 1011.3 |
| 20260505164018 | 62 | 139 | 0.0 | 0.0 | 0.00 | 0.08 | 0.08 | 92 | 1011.3 |
| 20260505163516 | 61 | 200 | 0.0 | 0.0 | 0.00 | 0.08 | 0.08 | 92 | 1011.3 |
| 20260505163010 | 61 | 211 | 0.0 | 0.0 | 0.00 | 0.08 | 0.08 | 92 | 1011.3 |
| 20260505162503 | 61 | 210 | 0.0 | 0.0 | 0.00 | 0.08 | 0.08 | 92 | 1011.2 |
| 20260505161956 | 61 | 197 | 0.0 | 0.0 | 0.00 | 0.08 | 0.08 | 93 | 1011.1 |
| 20260505161500 | 60 | 196 | 0.0 | 0.0 | 0.00 | 0.08 | 0.08 | 93 | 1011.0 |
| 20260505160948 | 60 | 162 | 0.0 | 1.0 | 0.00 | 0.08 | 0.08 | 92 | 1010.9 |
| 20260505160426 | 60 | 205 | 0.0 | 1.0 | 0.00 | 0.08 | 0.08 | 93 | 1011.0 |
| 20260505153208 | 59 | 145 | 0.0 | 0.0 | 0.08 | 0.08 | 0.08 | 92 | 1010.9 |
| 20260505152712 | 59 | 191 | 0.0 | 0.0 | 0.07 | 0.07 | 0.07 | 92 | 1011.2 |
| 20260505152218 | 59 | 191 | 0.0 | 0.0 | 0.07 | 0.06 | 0.07 | 92 | 1011.3 |
| 20260505151655 | 59 | 191 | 0.0 | 0.0 | 0.05 | 0.06 | 0.06 | 92 | 1011.7 |
| 20260505151144 | 59 | 191 | 0.0 | 0.0 | 0.05 | 0.05 | 0.05 | 91 | 1011.9 |
| 20260505150639 | 59 | 191 | 0.0 | 0.0 | 0.08 | 0.05 | 0.05 | 91 | 1011.9 |
| 20260505150121 | 59 | 191 | 0.0 | 0.0 | 0.08 | 0.04 | 0.05 | 90 | 1012.0 |
| 20260505140453 | 61 | 185 | 0.0 | 0.0 | 0.00 | 0.00 | 0.00 | 81 | 1011.8 |
| 20260505124755 | 59 | 200 | 0.0 | 0.0 | 0.00 | 0.00 | 0.00 | 81 | 1011.4 |
| 20260505124244 | 59 | 191 | 0.0 | 0.0 | 0.00 | 0.00 | 0.00 | 82 | 1011.4 |
| 20260505123737 | 59 | 191 | 0.0 | 0.0 | 0.00 | 0.00 | 0.00 | 82 | 1011.3 |
| 20260505123235 | 59 | 191 | 0.0 | 0.0 | 0.00 | 0.00 | 0.00 | 82 | 1011.1 |
| 20260505122731 | 59 | 191 | 0.0 | 0.0 | 0.00 | 0.00 | 0.00 | 82 | 1011.1 |
| 20260505122221 | 59 | 191 | 0.0 | 0.0 | 0.00 | 0.00 | 0.00 | 82 | 1011.1 |
| 20260505121703 | 58 | 191 | 0.0 | 0.0 | 0.00 | 0.00 | 0.00 | 82 | 1011.0 |
| 20260505121157 | 58 | 191 | 0.0 | 0.0 | 0.00 | 0.00 | 0.00 | 82 | 1010.9 |
| 20260505120644 | 58 | 190 | 0.0 | 0.0 | 0.00 | 0.00 | 0.00 | 82 | 1010.9 |
| 20260505120143 | 58 | 190 | 0.0 | 0.0 | 0.00 | 0.00 | 0.00 | 83 | 1010.9 |
| 20260505115631 | 58 | 189 | 0.0 | 0.0 | 0.00 | 0.00 | 0.00 | 82 | 1010.7 |
| 20260505115123 | 58 | 189 | 0.0 | 0.0 | 0.00 | 0.00 | 0.00 | 83 | 1010.8 |
| 20260505114619 | 58 | 189 | 0.0 | 0.0 | 0.00 | 0.00 | 0.00 | 83 | 1010.8 |
| 20260505114123 | 57 | 189 | 0.0 | 0.0 | 0.00 | 0.00 | 0.00 | 83 | 1010.8 |
| 20260505113618 | 57 | 189 | 0.0 | 0.0 | 0.00 | 0.00 | 0.00 | 84 | 1010.5 |
| 20260505113108 | 57 | 188 | 0.0 | 0.0 | 0.00 | 0.00 | 0.00 | 85 | 1010.6 |
| 20260505112546 | 56 | 189 | 0.0 | 0.0 | 0.00 | 0.00 | 0.00 | 86 | 1010.6 |
| 20260505112026 | 56 | 189 | 0.0 | 0.0 | 0.00 | 0.00 | 0.00 | 87 | 1010.6 |
| 20260505111511 | 56 | 190 | 0.0 | 0.0 | 0.00 | 0.00 | 0.00 | 86 | 1010.6 |
| 20260505111007 | 56 | 190 | 0.0 | 1.0 | 0.00 | 0.00 | 0.00 | 86 | 1010.5 |
| 20260505110503 | 56 | 190 | 0.0 | 0.0 | 0.00 | 0.00 | 0.00 | 86 | 1010.4 |
| 20260505101840 | 56 | 190 | 0.0 | 0.0 | 0.00 | 0.00 | 0.00 | 84 | 1010.5 |
| 20260505101335 | 56 | 190 | 0.0 | 0.0 | 0.00 | 0.00 | 0.00 | 84 | 1010.5 |
| 20260505100832 | 56 | 190 | 0.0 | 0.0 | 0.00 | 0.00 | 0.00 | 84 | 1010.4 |
| 20260505100315 | 56 | 190 | 0.0 | 0.0 | 0.00 | 0.00 | 0.00 | 84 | 1010.5 |
| 20260505095820 | 56 | 190 | 0.0 | 0.0 | 0.00 | 0.00 | 0.00 | 83 | 1010.5 |
| 20260505095315 | 56 | 190 | 0.0 | 0.0 | 0.00 | 0.00 | 0.00 | 83 | 1010.7 |
| 20260505094817 | 56 | 190 | 0.0 | 0.0 | 0.00 | 0.00 | 0.00 | 83 | 1010.6 |
| 20260505094305 | 56 | 190 | 0.0 | 0.0 | 0.00 | 0.00 | 0.00 | 83 | 1010.5 |
| 20260505093757 | 56 | 190 | 0.0 | 0.0 | 0.00 | 0.00 | 0.00 | 83 | 1010.5 |
| 20260505093246 | 56 | 190 | 0.0 | 0.0 | 0.00 | 0.00 | 0.00 | 83 | 1010.3 |
| 20260505092743 | 56 | 190 | 0.0 | 0.0 | 0.00 | 0.00 | 0.00 | 82 | 1010.3 |
| 20260505092225 | 56 | 190 | 0.0 | 0.0 | 0.00 | 0.00 | 0.00 | 82 | 1010.4 |
| 20260505091717 | 56 | 190 | 0.0 | 0.0 | 0.00 | 0.00 | 0.00 | 81 | 1010.5 |
| 20260505091200 | 57 | 190 | 0.0 | 0.0 | 0.00 | 0.00 | 0.00 | 81 | 1010.4 |
| 20260505090651 | 57 | 190 | 0.0 | 0.0 | 0.00 | 0.00 | 0.00 | 80 | 1010.5 |
| 20260505090157 | 57 | 190 | 0.0 | 0.0 | 0.00 | 0.00 | 0.00 | 80 | 1010.5 |
| 20260505085649 | 57 | 190 | 0.0 | 0.0 | 0.00 | 0.00 | 0.00 | 80 | 1010.4 |
| 20260505085146 | 58 | 190 | 0.0 | 0.0 | 0.00 | 0.00 | 0.00 | 79 | 1010.2 |
| 20260505084637 | 58 | 190 | 0.0 | 0.0 | 0.00 | 0.00 | 0.00 | 79 | 1010.3 |
| 20260505084132 | 58 | 190 | 0.0 | 0.0 | 0.00 | 0.00 | 0.00 | 79 | 1010.2 |
| 20260505083640 | 58 | 190 | 0.0 | 0.0 | 0.00 | 0.00 | 0.00 | 78 | 1010.1 |
| 20260505083138 | 58 | 190 | 0.0 | 0.0 | 0.00 | 0.00 | 0.00 | 78 | 1010.1 |
| 20260505082638 | 58 | 190 | 0.0 | 0.0 | 0.00 | 0.00 | 0.00 | 77 | 1010.1 |
| 20260505082137 | 58 | 190 | 0.0 | 0.0 | 0.00 | 0.00 | 0.00 | 77 | 1010.0 |
| 20260505081622 | 59 | 190 | 0.0 | 0.0 | 0.00 | 0.00 | 0.00 | 77 | 1010.0 |
| 20260505081125 | 59 | 190 | 0.0 | 0.0 | 0.00 | 0.00 | 0.00 | 76 | 1010.0 |
| 20260505080625 | 59 | 190 | 0.0 | 0.0 | 0.00 | 0.00 | 0.00 | 75 | 1009.9 |
| 20260505080115 | 60 | 190 | 0.0 | 0.0 | 0.00 | 0.00 | 0.00 | 74 | 1009.8 |
| 20260505075600 | 60 | 190 | 0.0 | 0.0 | 0.00 | 0.00 | 0.00 | 74 | 1009.9 |
| 20260505075105 | 60 | 190 | 0.0 | 0.0 | 0.00 | 0.00 | 0.00 | 72 | 1009.9 |
| 20260505074600 | 60 | 190 | 0.0 | 0.0 | 0.00 | 0.00 | 0.00 | 72 | 1009.8 |
| 20260505074105 | 60 | 190 | 0.0 | 0.0 | 0.00 | 0.00 | 0.00 | 72 | 1009.9 |
| 20260505073602 | 61 | 190 | 0.0 | 0.0 | 0.00 | 0.00 | 0.00 | 73 | 1010.0 |
| 20260505073049 | 61 | 190 | 0.0 | 0.0 | 0.00 | 0.00 | 0.00 | 72 | 1009.9 |
| 20260505072553 | 61 | 190 | 0.0 | 0.0 | 0.00 | 0.00 | 0.00 | 71 | 1009.9 |
| 20260505072052 | 61 | 123 | 0.0 | 0.0 | 0.00 | 0.00 | 0.00 | 72 | 1009.9 |
| 20260505071553 | 61 | 140 | 0.0 | 0.0 | 0.00 | 0.00 | 0.00 | 72 | 1009.9 |
| 20260505071050 | 61 | 140 | 0.0 | 0.0 | 0.00 | 0.00 | 0.00 | 72 | 1009.8 |
| 20260505070554 | 60 | 140 | 0.0 | 0.0 | 0.00 | 0.00 | 0.00 | 72 | 1009.9 |
| 20260505070043 | 60 | 140 | 0.0 | 0.0 | 0.00 | 0.00 | 0.00 | 73 | 1010.0 |
| 20260505065551 | 60 | 140 | 0.0 | 0.0 | 0.00 | 0.00 | 0.00 | 74 | 1010.2 |
| 20260505065033 | 59 | 140 | 0.0 | 0.0 | 0.00 | 0.00 | 0.00 | 74 | 1010.2 |
| 20260505064514 | 59 | 140 | 0.0 | 0.0 | 0.00 | 0.00 | 0.00 | 75 | 1010.3 |
| 20260505063953 | 59 | 140 | 0.0 | 0.0 | 0.00 | 0.00 | 0.00 | 76 | 1010.4 |
| 20260505063441 | 59 | 140 | 0.0 | 0.0 | 0.00 | 0.00 | 0.00 | 76 | 1010.5 |
| 20260505062930 | 59 | 140 | 0.0 | 0.0 | 0.00 | 0.00 | 0.00 | 75 | 1010.6 |
| 20260505062414 | 60 | 140 | 0.0 | 0.0 | 0.00 | 0.00 | 0.00 | 74 | 1010.7 |
| 20260505061919 | 60 | 140 | 0.0 | 0.0 | 0.00 | 0.00 | 0.00 | 74 | 1010.7 |
| 20260505061403 | 60 | 140 | 0.0 | 0.0 | 0.00 | 0.00 | 0.00 | 73 | 1010.7 |
| 20260505060848 | 60 | 140 | 0.0 | 0.0 | 0.00 | 0.00 | 0.00 | 72 | 1010.8 |
| 20260505060329 | 61 | 140 | 0.0 | 0.0 | 0.00 | 0.00 | 0.00 | 72 | 1010.9 |
| 20260505055815 | 61 | 140 | 0.0 | 0.0 | 0.00 | 0.00 | 0.00 | 72 | 1011.0 |
| 20260505055304 | 61 | 140 | 0.0 | 0.0 | 0.00 | 0.00 | 0.00 | 72 | 1011.0 |
| 20260505054742 | 60 | 140 | 0.0 | 0.0 | 0.00 | 0.00 | 0.00 | 72 | 1011.1 |
| 20260505054243 | 61 | 140 | 0.0 | 0.0 | 0.00 | 0.00 | 0.00 | 72 | 1011.2 |
| 20260505053750 | 61 | 140 | 0.0 | 0.0 | 0.00 | 0.00 | 0.00 | 72 | 1011.2 |
| 20260505053238 | 61 | 140 | 0.0 | 0.0 | 0.00 | 0.00 | 0.00 | 72 | 1011.2 |
| 20260505052721 | 60 | 140 | 0.0 | 0.0 | 0.00 | 0.00 | 0.00 | 72 | 1011.2 |
| 20260505052225 | 60 | 141 | 0.0 | 0.0 | 0.00 | 0.00 | 0.00 | 72 | 1011.2 |
| 20260505051706 | 60 | 141 | 0.0 | 1.0 | 0.00 | 0.00 | 0.00 | 73 | 1011.2 |
| 20260505051148 | 60 | 167 | 0.0 | 0.0 | 0.00 | 0.00 | 0.00 | 72 | 1011.3 |
| 20260505050638 | 60 | 167 | 0.0 | 0.0 | 0.00 | 0.00 | 0.00 | 72 | 1011.2 |
| 20260505050128 | 61 | 167 | 0.0 | 0.0 | 0.00 | 0.00 | 0.00 | 71 | 1011.3 |
| 20260505041538 | 64 | 167 | 0.0 | 0.0 | 0.00 | 0.00 | 0.00 | 66 | 1011.3 |
| 20260505041040 | 64 | 167 | 0.0 | 0.0 | 0.00 | 0.00 | 0.00 | 65 | 1011.3 |
| 20260505040522 | 65 | 167 | 0.0 | 0.0 | 0.00 | 0.00 | 0.00 | 63 | 1011.3 |
| 20260505040017 | 65 | 167 | 0.0 | 0.0 | 0.00 | 0.00 | 0.00 | 62 | 1011.3 |
| 20260505035512 | 65 | 167 | 0.0 | 0.0 | 0.00 | 0.00 | 0.00 | 60 | 1011.3 |
| 20260505035001 | 66 | 167 | 0.0 | 0.0 | 0.00 | 0.00 | 0.00 | 60 | 1011.3 |
| 20260505034509 | 66 | 167 | 0.0 | 0.0 | 0.00 | 0.00 | 0.00 | 59 | 1011.2 |
| 20260505033956 | 66 | 167 | 0.0 | 0.0 | 0.00 | 0.00 | 0.00 | 59 | 1011.1 |
| 20260505033444 | 67 | 172 | 0.0 | 0.0 | 0.00 | 0.00 | 0.00 | 58 | 1011.1 |
| 20260505032923 | 67 | 172 | 0.0 | 0.0 | 0.00 | 0.00 | 0.00 | 57 | 1011.1 |
| 20260505032429 | 67 | 172 | 0.0 | 0.0 | 0.00 | 0.00 | 0.00 | 57 | 1011.0 |
| 20260505031914 | 67 | 172 | 0.0 | 0.0 | 0.00 | 0.00 | 0.00 | 57 | 1010.9 |
| 20260505031352 | 67 | 152 | 0.0 | 0.0 | 0.00 | 0.00 | 0.00 | 56 | 1010.8 |
| 20260505030857 | 67 | 152 | 0.0 | 0.0 | 0.00 | 0.00 | 0.00 | 56 | 1010.8 |
| 20260505030349 | 67 | 134 | 0.0 | 0.0 | 0.00 | 0.00 | 0.00 | 56 | 1010.9 |
| 20260505025846 | 68 | 134 | 0.0 | 0.0 | 0.00 | 0.00 | 0.00 | 56 | 1010.7 |
| 20260505025345 | 68 | 134 | 0.0 | 0.0 | 0.00 | 0.00 | 0.00 | 55 | 1010.6 |
| 20260505024833 | 68 | 199 | 0.0 | 0.0 | 0.00 | 0.00 | 0.00 | 54 | 1010.6 |
| 20260505024330 | 69 | 156 | 0.0 | 0.0 | 0.00 | 0.00 | 0.00 | 54 | 1010.6 |
| 20260505023825 | 69 | 148 | 0.0 | 0.0 | 0.00 | 0.00 | 0.00 | 54 | 1010.6 |
| 20260505023319 | 69 | 184 | 0.0 | 0.0 | 0.00 | 0.00 | 0.00 | 53 | 1010.6 |
| 20260505022812 | 69 | 167 | 0.0 | 0.0 | 0.00 | 0.00 | 0.00 | 53 | 1010.5 |
| 20260505022310 | 69 | 173 | 0.0 | 0.0 | 0.00 | 0.00 | 0.00 | 53 | 1010.5 |
| 20260505021750 | 69 | 162 | 0.0 | 0.0 | 0.00 | 0.00 | 0.00 | 53 | 1010.4 |
| 20260505021254 | 69 | 157 | 0.0 | 0.0 | 0.00 | 0.00 | 0.00 | 53 | 1010.3 |
| 20260505020757 | 69 | 181 | 0.0 | 0.0 | 0.00 | 0.00 | 0.00 | 53 | 1010.2 |
| 20260505020243 | 69 | 179 | 0.0 | 0.0 | 0.00 | 0.00 | 0.00 | 53 | 1010.1 |
| 20260505015723 | 70 | 188 | 0.0 | 0.0 | 0.00 | 0.00 | 0.00 | 53 | 1010.0 |
| 20260505015207 | 70 | 195 | 0.0 | 0.0 | 0.00 | 0.00 | 0.00 | 53 | 1010.0 |
| 20260505014708 | 70 | 195 | 0.0 | 0.0 | 0.00 | 0.00 | 0.00 | 53 | 1010.0 |
| 20260505014216 | 70 | 195 | 0.0 | 0.0 | 0.00 | 0.00 | 0.00 | 53 | 1009.9 |
| 20260505013704 | 70 | 145 | 0.0 | 0.0 | 0.00 | 0.00 | 0.00 | 52 | 1009.9 |
| 20260505013208 | 70 | 191 | 0.0 | 0.0 | 0.00 | 0.00 | 0.00 | 52 | 1009.9 |
| 20260505012657 | 70 | 191 | 0.0 | 0.0 | 0.00 | 0.00 | 0.00 | 53 | 1009.8 |
| 20260505012202 | 70 | 191 | 0.0 | 0.0 | 0.00 | 0.00 | 0.00 | 52 | 1009.8 |
| 20260505011700 | 70 | 191 | 0.0 | 0.0 | 0.00 | 0.00 | 0.00 | 53 | 1009.8 |
| 20260505011159 | 70 | 191 | 0.0 | 0.0 | 0.00 | 0.00 | 0.00 | 53 | 1009.9 |
| 20260505010658 | 70 | 186 | 0.0 | 0.0 | 0.00 | 0.00 | 0.00 | 53 | 1009.9 |
| 20260505010027 | 71 | 186 | 0.0 | 0.0 | 0.00 | 0.00 | 0.00 | 52 | 1009.9 |
| 20260505005355 | 71 | 186 | 0.0 | 0.0 | 0.00 | 0.00 | 0.00 | 51 | 1009.9 |
| 20260505004746 | 72 | 186 | 0.0 | 0.0 | 0.00 | 0.00 | 0.00 | 51 | 1009.9 |
| 20260505004118 | 72 | 191 | 0.0 | 0.0 | 0.00 | 0.00 | 0.00 | 49 | 1009.9 |
| 20260505003456 | 73 | 191 | 0.0 | 0.0 | 0.00 | 0.00 | 0.00 | 48 | 1009.9 |
| 20260505002822 | 73 | 195 | 0.0 | 0.0 | 0.00 | 0.00 | 0.00 | 48 | 1009.9 |
| 20260505002206 | 74 | 191 | 0.0 | 0.0 | 0.00 | 0.00 | 0.00 | 47 | 1009.9 |
| 20260505001557 | 74 | 163 | 0.0 | 0.0 | 0.00 | 0.00 | 0.00 | 46 | 1009.9 |
| 20260505000927 | 75 | 231 | 0.0 | 0.0 | 0.00 | 0.00 | 0.00 | 47 | 1009.9 |
| 20260505000251 | 75 | 134 | 0.0 | 1.0 | 0.00 | 0.00 | 0.00 | 45 | 1010.0 |
| 20260504235624 | 75 | 157 | 0.0 | 0.0 | 0.00 | 0.00 | 0.00 | 46 | 1010.0 |
| 20260504235005 | 76 | 165 | 0.0 | 0.0 | 0.00 | 0.00 | 0.00 | 46 | 1010.1 |
| 20260504234345 | 76 | 252 | 0.0 | 3.0 | 0.00 | 0.00 | 0.00 | 45 | 1010.2 |
| 20260504233730 | 77 | 90 | 0.0 | 0.0 | 0.00 | 0.00 | 0.00 | 42 | 1010.2 |
| 20260504233111 | 77 | 205 | 0.0 | 2.0 | 0.00 | 0.00 | 0.00 | 42 | 1010.5 |
| 20260504232453 | 77 | 158 | 0.0 | 0.0 | 0.00 | 0.00 | 0.00 | 43 | 1010.4 |
| 20260504231825 | 78 | 166 | 0.0 | 0.0 | 0.00 | 0.00 | 0.00 | 43 | 1010.5 |
| 20260504231151 | 78 | 201 | 0.0 | 0.0 | 0.00 | 0.00 | 0.00 | 41 | 1010.5 |
| 20260504230541 | 78 | 192 | 0.0 | 0.0 | 0.00 | 0.00 | 0.00 | 42 | 1010.5 |
| 20260504225915 | 78 | 205 | 0.0 | 1.0 | 0.00 | 0.00 | 0.00 | 41 | 1010.5 |
| 20260504225243 | 78 | 148 | 0.0 | 0.0 | 0.00 | 0.00 | 0.00 | 41 | 1010.5 |
| 20260504224631 | 79 | 149 | 0.0 | 3.0 | 0.00 | 0.00 | 0.00 | 41 | 1010.5 |
| 20260504224002 | 79 | 205 | 0.0 | 3.0 | 0.00 | 0.00 | 0.00 | 41 | 1010.5 |
| 20260504223354 | 80 | 117 | 0.0 | 2.0 | 0.00 | 0.00 | 0.00 | 42 | 1010.4 |
| 20260504222745 | 80 | 133 | 0.0 | 0.0 | 0.00 | 0.00 | 0.00 | 40 | 1010.4 |
| 20260504222123 | 80 | 172 | 0.0 | 0.0 | 0.00 | 0.00 | 0.00 | 43 | 1010.5 |
| 20260504221453 | 80 | 202 | 0.0 | 0.0 | 0.00 | 0.00 | 0.00 | 39 | 1010.5 |
| 20260504220815 | 79 | 184 | 0.0 | 2.0 | 0.00 | 0.00 | 0.00 | 39 | 1010.5 |
| 20260504220203 | 80 | 233 | 0.0 | 2.0 | 0.00 | 0.00 | 0.00 | 38 | 1010.5 |
| 20260504215550 | 81 | 162 | 0.0 | 4.0 | 0.00 | 0.00 | 0.00 | 37 | 1010.4 |
| 20260504214942 | 81 | 110 | 1.0 | 4.0 | 0.00 | 0.00 | 0.00 | 38 | 1010.4 |
| 20260504214319 | 82 | 149 | 0.0 | 3.0 | 0.00 | 0.00 | 0.00 | 37 | 1010.2 |
| 20260504213700 | 82 | 170 | 0.0 | 1.0 | 0.00 | 0.00 | 0.00 | 39 | 1010.2 |
| 20260504213026 | 82 | 120 | 0.0 | 2.0 | 0.00 | 0.00 | 0.00 | 38 | 1010.2 |
| 20260504212357 | 82 | 129 | 0.0 | 6.0 | 0.00 | 0.00 | 0.00 | 37 | 1010.2 |
| 20260504211744 | 82 | 139 | 1.0 | 7.0 | 0.00 | 0.00 | 0.00 | 37 | 1010.2 |
| 20260504211122 | 82 | 189 | 1.0 | 7.0 | 0.00 | 0.00 | 0.00 | 37 | 1010.2 |
| 20260504210500 | 82 | 89 | 0.0 | 7.0 | 0.00 | 0.00 | 0.00 | 39 | 1010.3 |
| 20260504205830 | 82 | 120 | 0.0 | 1.0 | 0.00 | 0.00 | 0.00 | 39 | 1010.3 |
| 20260504205153 | 82 | 204 | 1.0 | 6.0 | 0.00 | 0.00 | 0.00 | 37 | 1010.3 |
| 20260504204532 | 82 | 138 | 0.0 | 6.0 | 0.00 | 0.00 | 0.00 | 38 | 1010.6 |
| 20260504203922 | 82 | 73 | 0.0 | 6.0 | 0.00 | 0.00 | 0.00 | 39 | 1010.4 |
| 20260504203253 | 83 | 181 | 0.0 | 5.0 | 0.00 | 0.00 | 0.00 | 38 | 1010.5 |
| 20260504202634 | 83 | 207 | 0.0 | 0.0 | 0.00 | 0.00 | 0.00 | 41 | 1010.6 |
| 20260504202024 | 83 | 236 | 0.0 | 3.0 | 0.00 | 0.00 | 0.00 | 39 | 1010.7 |
| 20260504201411 | 82 | 163 | 0.0 | 3.0 | 0.00 | 0.00 | 0.00 | 39 | 1010.7 |